Вернуться в каталог

STARLINK-5598

АктивенСвязьVLEO
NORAD 55421·PAYLOAD·🇺🇸 United States

Запущен Jan 31, 2023 с Vandenberg Space Force Base

Loading…

Ближайшие Пролёты (ближайшие 24 часа)

TLE

СвежийSource: CelesTrak SupGP

Эпоха: Sep 14, 2026, 22:28 UTC

1 55421C 23014AG  26257.93659722 -.00002430  00000+0 -20378-3 0  2572
2 55421  70.0006 327.2851 0003398 269.8320 316.3863 14.98308575    14

Отслеживайте STARLINK-5598 в реальном времени с AllMySat

Download on the App Store